User: anonymous   Login
Location: Gallinara
(44.0333°N, 8.2333°E)
Time: 05:38:31
(UTC+00:00)
Language:

Cosmos 2237 - Orbit

View from above orbital plane
View from above orbital plane
View from above satellite
View from above satellite

Ground track
Ground track

The orbit data is extracted from the following two-line orbital elements,

1 22565U 93016A   20339.52111337  .00000133  00000-0  98529-4 0  9993
2 22565  70.8457 258.2996 0004251 347.7420  12.3596 14.12490759428296
Epoch (UTC): 04 December 2020 12:30:24
Eccentricity: 0.0004251
inclination: 70.8457°
perigee height: 848 km
apogee height: 854 km
right ascension of ascending node: 258.2996°
argument of perigee: 347.7420°
revolutions per day: 14.12490759
mean anomaly at epoch: 12.3596°
orbit number at epoch: 42829

The dashed part of the orbit path shows where the satellite is in the earth's shadow,  

DLR